Appleton, MN

9:37 AM CST on February 23, 2017 (GMT -0600)
Appleton Municipal

Weather History for KAQP - August, 2014

Change the Weather History Date:

Sunday, August 24, 2014

  Actual Average Record
Temperature  
Mean Temperature 74 °F -  
Max Temperature 82 °F 77 °F 95 °F (2013)
Min Temperature 66 °F 55 °F 35 °F (2002)
Cooling Degree Days 9    
Growing Degree Days 24 (Base 50)    
Moisture  
Dew Point 65 °F    
Average Humidity 75    
Maximum Humidity 94    
Minimum Humidity 48    
Precipitation  
Precipitation 0.55 in - - ()
Sea Level Pressure  
Sea Level Pressure 29.78 in    
Wind  
Wind Speed 9 mph (South)    
Max Wind Speed 21 mph    
Max Gust Speed 29 mph    
Visibility 10 miles    
Events Rain , Thunderstorm    
Averages and records for this station are not official NWS values.
T = Trace of Precipitation, MM = Missing Value Source: NWS Daily Summary

Daily Weather History Graph

Daily Weather History Graph

Search for Another Location

Airport or City:

Trip Planner

Search our weather history database for the weather conditions in past years. The results will help you decide how hot, cold, wet, or windy it might be!

Date:

Astronomy

Aug. 24, 2014 Rise Set
Actual Time 6:36 AM CDT 8:15 PM CDT
Civil Twilight 6:04 AM CDT 8:46 PM CDT
Nautical Twilight 5:27 AM CDT 9:24 PM CDT
Astronomical Twilight 4:46 AM CDT 10:05 PM CDT
Moon 5:47 AM CDT (8/24) 7:32 PM CDT (8/24)
Length of Visible Light 14h 41m
Length of Day
13h 39m
Waning Crescent, 1% of the Moon is Illuminated
Aug 24
Waning Crescent
Aug 25
New
Sep 2
First Quarter
Sep 8
Full
Sep 15
Last Quarter

Hourly Weather History & Observations

Time (CDT) Temp. Heat Index Dew Point Humidity Pressure Visibility Wind Dir Wind Speed Gust Speed Precip Events Conditions
12:14 AM 73.4 °F - 69.8 °F 88% 29.78 in 10.0 mi ESE 15.0 mph 24.2 mph N/A   Mostly Cloudy
12:34 AM 73.4 °F - 69.8 °F 88% 29.76 in 10.0 mi ESE 17.3 mph 23.0 mph N/A   Mostly Cloudy
12:54 AM 73.4 °F - 69.8 °F 88% 29.75 in 10.0 mi ESE 16.1 mph 24.2 mph N/A   Mostly Cloudy
1:14 AM 73.4 °F - 69.8 °F 88% 29.74 in 10.0 mi SE 20.7 mph 28.8 mph N/A   Overcast
1:34 AM 73.4 °F - 69.8 °F 88% 29.74 in 10.0 mi SE 12.7 mph 28.8 mph N/A Thunderstorm Overcast
1:55 AM 69.8 °F - 64.4 °F 83% 29.82 in 2.5 mi SW 9.2 mph 17.3 mph 0.40 in Rain , Thunderstorm Heavy Thunderstorms and Rain
2:15 AM 66.2 °F - 62.6 °F 88% 29.76 in 10.0 mi Calm Calm - 0.13 in Rain , Thunderstorm Light Thunderstorms and Rain
2:34 AM 66.2 °F - 64.4 °F 94% 29.76 in 10.0 mi SE 10.4 mph - 0.13 in Rain , Thunderstorm Light Thunderstorms and Rain
2:55 AM 66.2 °F - 64.4 °F 94% 29.73 in 10.0 mi SE 9.2 mph - 0.14 in Rain , Thunderstorm Light Thunderstorms and Rain
3:14 AM 66.2 °F - 64.4 °F 94% 29.73 in 10.0 mi ESE 10.4 mph - N/A Rain , Thunderstorm Light Thunderstorms and Rain
3:35 AM 68.0 °F - 64.4 °F 88% 29.72 in 10.0 mi East 6.9 mph - N/A   Clear
3:54 AM 66.2 °F - 64.4 °F 94% 29.73 in 10.0 mi East 8.1 mph - N/A   Scattered Clouds
4:14 AM 66.2 °F - 64.4 °F 94% 29.75 in 10.0 mi Calm Calm - N/A   Scattered Clouds
4:35 AM 68.0 °F - 64.4 °F 88% 29.75 in 10.0 mi NE 4.6 mph - N/A   Scattered Clouds
4:55 AM 66.2 °F - 64.4 °F 94% 29.76 in 10.0 mi ESE 3.5 mph - N/A Rain Light Rain
5:15 AM 68.0 °F - 64.4 °F 88% 29.75 in 10.0 mi East 6.9 mph - N/A   Overcast
5:34 AM 66.2 °F - 64.4 °F 94% 29.74 in 10.0 mi East 8.1 mph - N/A   Mostly Cloudy
5:54 AM 66.2 °F - 64.4 °F 94% 29.73 in 10.0 mi East 8.1 mph - N/A   Scattered Clouds
6:14 AM 66.2 °F - 64.4 °F 94% 29.74 in 10.0 mi East 4.6 mph - N/A Rain Light Rain
6:35 AM 68.0 °F - 64.4 °F 88% 29.72 in 10.0 mi ENE 6.9 mph - N/A   Clear
6:55 AM 68.0 °F - 64.4 °F 88% 29.72 in 10.0 mi ENE 4.6 mph - N/A   Clear
7:15 AM 68.0 °F - 64.4 °F 88% 29.72 in 10.0 mi East 3.5 mph - N/A   Clear
7:34 AM 68.0 °F - 64.4 °F 88% 29.73 in 10.0 mi ESE 3.5 mph - N/A   Clear
7:54 AM 69.8 °F - 66.2 °F 88% 29.73 in 10.0 mi SE 3.5 mph - N/A   Clear
8:14 AM 69.8 °F - 66.2 °F 88% 29.74 in 10.0 mi SE 6.9 mph - N/A   Clear
8:35 AM 71.6 °F - 66.2 °F 83% 29.75 in 10.0 mi SE 9.2 mph - N/A   Scattered Clouds
8:54 AM 71.6 °F - 66.2 °F 83% 29.74 in 10.0 mi SE 9.2 mph - N/A   Scattered Clouds
9:15 AM 73.4 °F - 66.2 °F 78% 29.74 in 10.0 mi South 5.8 mph - N/A   Scattered Clouds
9:35 AM 75.2 °F - 66.2 °F 73% 29.75 in 10.0 mi SSE 5.8 mph - N/A   Mostly Cloudy
9:54 AM 77.0 °F - 66.2 °F 69% 29.75 in 10.0 mi South 5.8 mph - 0.01 in   Scattered Clouds
10:14 AM 78.8 °F - 66.2 °F 65% 29.75 in 10.0 mi South 6.9 mph - N/A   Clear
10:34 AM 80.6 °F 83.2 °F 68.0 °F 65% 29.76 in 10.0 mi South 8.1 mph 16.1 mph N/A   Scattered Clouds
10:54 AM 78.8 °F - 68.0 °F 69% 29.76 in 10.0 mi SSW 10.4 mph 18.4 mph N/A   Mostly Cloudy
11:14 AM 80.6 °F 83.9 °F 69.8 °F 70% 29.75 in 10.0 mi South 10.4 mph - N/A   Scattered Clouds
11:34 AM 80.6 °F 83.9 °F 69.8 °F 70% 29.75 in 10.0 mi SSW 12.7 mph - N/A   Clear
11:55 AM 82.4 °F 86.3 °F 69.8 °F 66% 29.75 in 10.0 mi South 9.2 mph - N/A   Clear
12:14 PM 82.4 °F 86.3 °F 69.8 °F 66% 29.75 in 10.0 mi SW 11.5 mph - N/A   Clear
12:34 PM 82.4 °F 85.4 °F 68.0 °F 62% 29.76 in 10.0 mi SSW 13.8 mph 19.6 mph N/A   Clear
12:54 PM 82.4 °F 86.3 °F 69.8 °F 66% 29.77 in 10.0 mi SSW 12.7 mph 20.7 mph N/A   Clear
1:14 PM 82.4 °F 85.4 °F 68.0 °F 62% 29.77 in 10.0 mi WSW 13.8 mph - N/A   Clear
1:34 PM 82.4 °F 84.6 °F 66.2 °F 58% 29.78 in 10.0 mi SW 11.5 mph 17.3 mph N/A   Clear
1:55 PM 82.4 °F 84.6 °F 66.2 °F 58% 29.78 in 10.0 mi WSW 11.5 mph 17.3 mph N/A   Clear
2:14 PM 82.4 °F 84.6 °F 66.2 °F 58% 29.78 in 10.0 mi WSW 12.7 mph - N/A   Clear
2:35 PM 82.4 °F 85.4 °F 68.0 °F 62% 29.78 in 10.0 mi WSW 10.4 mph 16.1 mph N/A   Clear
2:54 PM 82.4 °F 84.6 °F 66.2 °F 58% 29.78 in 10.0 mi WSW 9.2 mph - N/A   Clear
3:14 PM 82.4 °F 84.6 °F 66.2 °F 58% 29.78 in 10.0 mi West 11.5 mph - N/A   Clear
3:34 PM 82.4 °F 84.6 °F 66.2 °F 58% 29.78 in 10.0 mi West 6.9 mph - N/A   Clear
3:54 PM 82.4 °F 83.9 °F 64.4 °F 54% 29.78 in 10.0 mi WSW 5.8 mph - N/A   Clear
4:15 PM 82.4 °F 84.6 °F 66.2 °F 58% 29.79 in 10.0 mi West 9.2 mph - N/A   Clear
4:34 PM 82.4 °F 83.4 °F 62.6 °F 51% 29.79 in 10.0 mi West 12.7 mph 17.3 mph N/A   Clear
4:54 PM 82.4 °F 82.9 °F 60.8 °F 48% 29.80 in 10.0 mi West 10.4 mph - N/A   Clear
5:15 PM 82.4 °F 83.4 °F 62.6 °F 51% 29.80 in 10.0 mi West 10.4 mph - N/A   Clear
5:35 PM 78.8 °F - 59.0 °F 51% 29.81 in 10.0 mi West 11.5 mph - N/A   Clear
5:54 PM 78.8 °F - 60.8 °F 54% 29.82 in 10.0 mi West 6.9 mph - N/A   Clear
6:15 PM 77.0 °F - 60.8 °F 57% 29.82 in 10.0 mi West 10.4 mph - N/A   Clear
6:34 PM 75.2 °F - 60.8 °F 61% 29.82 in 10.0 mi WSW 5.8 mph - N/A   Clear
6:54 PM 73.4 °F - 62.6 °F 69% 29.83 in 10.0 mi SW 3.5 mph - N/A   Clear
7:14 PM 73.4 °F - 62.6 °F 69% 29.83 in 10.0 mi SW 4.6 mph - N/A   Clear
7:35 PM 75.2 °F - 62.6 °F 65% 29.83 in 10.0 mi SW 3.5 mph - N/A   Clear
7:54 PM 73.4 °F - 60.8 °F 65% 29.83 in 10.0 mi SSW 3.5 mph - N/A   Clear
8:14 PM 73.4 °F - 60.8 °F 65% 29.83 in 10.0 mi SSW 3.5 mph - N/A   Clear
8:34 PM 71.6 °F - 60.8 °F 69% 29.84 in 10.0 mi Calm Calm - N/A   Clear
8:54 PM 69.8 °F - 62.6 °F 78% 29.84 in 10.0 mi South 3.5 mph - N/A   Clear
9:14 PM 68.0 °F - 62.6 °F 83% 29.84 in 10.0 mi SE 3.5 mph - N/A   Clear
9:34 PM 68.0 °F - 62.6 °F 83% 29.85 in 10.0 mi SE 3.5 mph - N/A   Clear
9:54 PM 69.8 °F - 62.6 °F 78% 29.85 in 10.0 mi Calm Calm - N/A   Clear
10:15 PM 68.0 °F - 60.8 °F 78% 29.85 in 10.0 mi SE 4.6 mph - N/A   Clear
10:35 PM 68.0 °F - 60.8 °F 78% 29.85 in 10.0 mi SSE 4.6 mph - N/A   Clear
10:54 PM 68.0 °F - 60.8 °F 78% 29.85 in 10.0 mi SSE 4.6 mph - N/A   Clear
11:14 PM 68.0 °F - 60.8 °F 78% 29.84 in 10.0 mi SSE 4.6 mph - N/A   Clear
11:35 PM 66.2 °F - 60.8 °F 83% 29.84 in 10.0 mi South 3.5 mph - N/A   Clear
11:54 PM 66.2 °F - 60.8 °F 83% 29.84 in 10.0 mi South 3.5 mph - N/A   Clear